BXS1836 LGSR-LICR

Flight info

Callsign BXS1836
Flight time 1h 39m
Altitude 37000
Route NETIS M601 RUTOM/N0455F370 DCT GIMEL
Aircraft A321/M-SDE3FGHIRWY/LB1

Departure

Time 2026-05-09 11:12
Airport Santorini International Airport (LGSR)

Arrival

Time 2026-05-09 12:52
Airport Reggio Calabria Airport (LICR)
Time Latitude Longitude Altitude Speed Heading
2026-05-09 10:32 36.40183 25.47456 89 ft 0 kts 249°
2026-05-09 11:00 36.40189 25.47474 90 ft 4 kts 258°
2026-05-09 11:01 36.40189 25.47505 89 ft 4 kts 294°
2026-05-09 11:01 36.40174 25.47526 92 ft 2 kts 339°
2026-05-09 11:01 36.40173 25.47526 91 ft 0 kts 339°
2026-05-09 11:06 36.40176 25.47525 89 ft 2 kts 339°
2026-05-09 11:06 36.40195 25.47516 90 ft 4 kts 339°
2026-05-09 11:06 36.40223 25.47504 89 ft 5 kts 342°
2026-05-09 11:07 36.40253 25.47513 92 ft 5 kts 34°
2026-05-09 11:07 36.40277 25.47550 89 ft 6 kts 35°
2026-05-09 11:07 36.40322 25.47554 89 ft 7 kts 346°
2026-05-09 11:07 36.40370 25.47533 92 ft 8 kts 340°
2026-05-09 11:08 36.40422 25.47509 92 ft 8 kts 339°
2026-05-09 11:08 36.40481 25.47481 91 ft 10 kts 339°
2026-05-09 11:08 36.40547 25.47449 91 ft 11 kts 339°
2026-05-09 11:08 36.40622 25.47414 92 ft 12 kts 340°
2026-05-09 11:09 36.40705 25.47375 92 ft 13 kts 339°
2026-05-09 11:09 36.40795 25.47341 96 ft 13 kts
2026-05-09 11:09 36.40824 25.47364 93 ft 0 kts 61°
2026-05-09 11:11 36.40833 25.47387 92 ft 7 kts 65°
2026-05-09 11:11 36.40841 25.47456 94 ft 9 kts 115°
2026-05-09 11:11 36.40767 25.47513 93 ft 20 kts 157°
2026-05-09 11:12 36.40454 25.47665 90 ft 83 kts 159°
2026-05-09 11:12 36.39730 25.48011 70 ft 138 kts 159°
2026-05-09 11:12 36.38732 25.48476 361 ft 157 kts 158°
2026-05-09 11:12 36.37720 25.48985 1016 ft 156 kts 155°
2026-05-09 11:13 36.36760 25.49603 1636 ft 155 kts 148°
2026-05-09 11:13 36.35821 25.50315 2044 ft 166 kts 147°
2026-05-09 11:13 36.34768 25.51121 2248 ft 189 kts 148°
2026-05-09 11:13 36.33583 25.52013 2522 ft 207 kts 148°
2026-05-09 11:14 36.32331 25.52942 3189 ft 210 kts 150°
2026-05-09 11:14 36.31062 25.53870 3917 ft 214 kts 152°
2026-05-09 11:14 36.29764 25.54807 4566 ft 219 kts 153°
2026-05-09 11:14 36.28424 25.55759 5208 ft 225 kts 152°
2026-05-09 11:15 36.27235 25.57053 5850 ft 234 kts 128°
2026-05-09 11:15 36.26601 25.58937 6514 ft 244 kts 101°
2026-05-09 11:15 36.26730 25.61119 6862 ft 267 kts 70°
2026-05-09 11:15 36.27758 25.63022 7399 ft 276 kts 42°
2026-05-09 11:16 36.29221 25.64579 8108 ft 279 kts 35°
2026-05-09 11:16 36.30827 25.65945 8861 ft 281 kts 27°
2026-05-09 11:16 36.32573 25.67100 9611 ft 282 kts 20°
2026-05-09 11:16 36.34373 25.67978 10310 ft 282 kts 12°
2026-05-09 11:17 36.36295 25.68592 11003 ft 281 kts
2026-05-09 11:17 36.38230 25.68916 11692 ft 281 kts 358°
2026-05-09 11:17 36.40181 25.68960 12388 ft 280 kts 351°
2026-05-09 11:17 36.42114 25.68723 13086 ft 279 kts 343°
2026-05-09 11:18 36.44000 25.68211 13794 ft 277 kts 337°
2026-05-09 11:18 36.45794 25.67448 14428 ft 276 kts 330°
2026-05-09 11:18 36.47520 25.66429 15072 ft 274 kts 324°
2026-05-09 11:18 36.49131 25.65180 15692 ft 272 kts 317°
2026-05-09 11:19 36.50605 25.63714 16334 ft 270 kts 311°
2026-05-09 11:19 36.51923 25.62064 16980 ft 269 kts 305°
2026-05-09 11:19 36.53084 25.60251 17621 ft 268 kts 300°
2026-05-09 11:19 36.54078 25.58294 18266 ft 267 kts 294°
2026-05-09 11:20 36.54879 25.56222 18824 ft 266 kts 288°
2026-05-09 11:20 36.55491 25.54052 19381 ft 266 kts 283°
2026-05-09 11:20 36.55909 25.51810 19935 ft 267 kts 278°
2026-05-09 11:20 36.56119 25.49515 20486 ft 268 kts 273°
2026-05-09 11:21 36.56125 25.47192 21037 ft 270 kts 268°
2026-05-09 11:21 36.55923 25.44861 21584 ft 273 kts 263°
2026-05-09 11:21 36.55506 25.42546 22115 ft 276 kts 257°
2026-05-09 11:21 36.54866 25.40270 22652 ft 281 kts 252°
2026-05-09 11:22 36.53999 25.38063 23172 ft 287 kts 246°
2026-05-09 11:22 36.52903 25.35963 23645 ft 293 kts 240°
2026-05-09 11:22 36.51600 25.33976 23970 ft 298 kts 239°
2026-05-09 11:22 36.50668 25.31769 24064 ft 283 kts 262°
2026-05-09 11:23 36.50608 25.29385 24064 ft 275 kts 284°
2026-05-09 11:23 36.51379 25.27225 24062 ft 278 kts 303°
2026-05-09 11:23 36.52550 25.25305 24063 ft 279 kts 304°
2026-05-09 11:23 36.53738 25.23393 24063 ft 279 kts 304°
2026-05-09 11:24 36.54927 25.21481 24062 ft 279 kts 304°
2026-05-09 11:24 36.56116 25.19568 24062 ft 279 kts 304°
2026-05-09 11:24 36.57298 25.17657 24062 ft 279 kts 303°
2026-05-09 11:24 36.58479 25.15740 24083 ft 279 kts 303°
2026-05-09 11:25 36.59659 25.13820 24067 ft 279 kts 303°
2026-05-09 11:25 36.60823 25.11925 24063 ft 279 kts 303°
2026-05-09 11:25 36.62019 25.09978 24063 ft 279 kts 303°
2026-05-09 11:25 36.63182 25.08084 24063 ft 279 kts 303°
2026-05-09 11:26 36.64362 25.06158 24063 ft 279 kts 303°
2026-05-09 11:26 36.65540 25.04236 24059 ft 279 kts 303°
2026-05-09 11:26 36.66718 25.02314 24059 ft 279 kts 303°
2026-05-09 11:26 36.67896 25.00391 24060 ft 279 kts 303°
2026-05-09 11:27 36.69073 24.98443 24064 ft 289 kts 302°
2026-05-09 11:27 36.70074 24.96213 24063 ft 303 kts 290°
2026-05-09 11:27 36.70582 24.93594 24063 ft 321 kts 278°
2026-05-09 11:27 36.70849 24.90767 24061 ft 336 kts 278°
2026-05-09 11:28 36.71142 24.87813 24055 ft 351 kts 278°
2026-05-09 11:28 36.71454 24.84738 24054 ft 364 kts 278°
2026-05-09 11:28 36.71778 24.81586 24056 ft 369 kts 278°
2026-05-09 11:28 36.72103 24.78410 24057 ft 370 kts 278°
2026-05-09 11:29 36.72429 24.75234 24057 ft 370 kts 279°
2026-05-09 11:29 36.72753 24.72051 24057 ft 370 kts 278°
2026-05-09 11:29 36.73077 24.68868 24058 ft 370 kts 278°
2026-05-09 11:29 36.73397 24.65682 24058 ft 370 kts 278°
2026-05-09 11:30 36.73713 24.62495 24058 ft 370 kts 278°
2026-05-09 11:30 36.74027 24.59310 24059 ft 370 kts 278°
2026-05-09 11:30 36.74341 24.56125 24059 ft 370 kts 278°
2026-05-09 11:30 36.74685 24.52949 24058 ft 369 kts 282°
2026-05-09 11:31 36.75387 24.49921 24059 ft 369 kts 291°
2026-05-09 11:31 36.76324 24.46943 24057 ft 369 kts 291°
2026-05-09 11:31 36.77254 24.43969 24057 ft 369 kts 291°
2026-05-09 11:31 36.78185 24.40983 24057 ft 369 kts 291°
2026-05-09 11:32 36.79114 24.37998 24062 ft 369 kts 291°
2026-05-09 11:32 36.80039 24.35019 24054 ft 367 kts 291°
2026-05-09 11:32 36.80960 24.32049 24054 ft 367 kts 291°
2026-05-09 11:32 36.81880 24.29083 24055 ft 367 kts 291°
2026-05-09 11:33 36.82800 24.26116 24051 ft 366 kts 291°
2026-05-09 11:33 36.83407 24.24157 24051 ft 366 kts 291°
2026-05-09 11:33 36.85558 24.17224 24051 ft 366 kts 291°
2026-05-09 11:34 36.86166 24.15257 24052 ft 366 kts 291°
2026-05-09 11:34 36.87081 24.12289 24048 ft 366 kts 291°
2026-05-09 11:34 36.87995 24.09322 24049 ft 366 kts 291°
2026-05-09 11:34 36.88909 24.06353 24048 ft 366 kts 291°
2026-05-09 11:35 36.89818 24.03396 24046 ft 365 kts 291°
2026-05-09 11:35 36.90725 24.00437 24045 ft 365 kts 291°
2026-05-09 11:35 36.91634 23.97478 24046 ft 365 kts 291°
2026-05-09 11:35 36.92543 23.94521 24046 ft 365 kts 291°
2026-05-09 11:36 36.93452 23.91563 24049 ft 365 kts 291°
2026-05-09 11:36 36.94362 23.88598 24049 ft 364 kts 291°
2026-05-09 11:36 36.95268 23.85637 24044 ft 364 kts 291°
2026-05-09 11:36 36.96170 23.82682 24043 ft 364 kts 291°
2026-05-09 11:37 36.97074 23.79720 24043 ft 364 kts 291°
2026-05-09 11:37 36.97977 23.76762 24043 ft 364 kts 291°
2026-05-09 11:37 36.98881 23.73805 24036 ft 364 kts 291°
2026-05-09 11:37 36.99783 23.70853 24040 ft 363 kts 291°
2026-05-09 11:38 37.00669 23.67943 24042 ft 363 kts 291°
2026-05-09 11:38 37.01563 23.64995 24040 ft 363 kts 291°
2026-05-09 11:38 37.02457 23.62046 24035 ft 363 kts 291°
2026-05-09 11:38 37.03350 23.59096 24035 ft 363 kts 291°
2026-05-09 11:39 37.04242 23.56141 24033 ft 362 kts 291°
2026-05-09 11:39 37.05132 23.53193 24035 ft 362 kts 291°
2026-05-09 11:39 37.06023 23.50243 24035 ft 362 kts 291°
2026-05-09 11:40 37.07807 23.44340 24032 ft 362 kts 291°
2026-05-09 11:40 37.08699 23.41387 24031 ft 362 kts 291°
2026-05-09 11:40 37.09590 23.38437 24029 ft 363 kts 291°
2026-05-09 11:40 37.10480 23.35482 24027 ft 363 kts 291°
2026-05-09 11:41 37.11369 23.32528 24026 ft 363 kts 291°
2026-05-09 11:41 37.12259 23.29569 24024 ft 363 kts 291°
2026-05-09 11:41 37.13144 23.26621 24024 ft 362 kts 291°
2026-05-09 11:41 37.14031 23.23660 24024 ft 362 kts 291°
2026-05-09 11:42 37.14915 23.20697 24021 ft 363 kts 291°
2026-05-09 11:42 37.15797 23.17734 24022 ft 363 kts 291°
2026-05-09 11:42 37.16677 23.14772 24022 ft 363 kts 291°
2026-05-09 11:42 37.17557 23.11811 24021 ft 363 kts 291°
2026-05-09 11:43 37.18439 23.08844 24008 ft 362 kts 291°
2026-05-09 11:43 37.19317 23.05884 24020 ft 362 kts 291°
2026-05-09 11:43 37.20190 23.02929 24021 ft 362 kts 291°
2026-05-09 11:43 37.21066 22.99972 24021 ft 362 kts 291°
2026-05-09 11:44 37.21945 22.97014 24027 ft 362 kts 291°
2026-05-09 11:44 37.22821 22.94057 24027 ft 362 kts 291°
2026-05-09 11:44 37.23694 22.91101 24027 ft 362 kts 291°
2026-05-09 11:44 37.24568 22.88142 24027 ft 362 kts 291°
2026-05-09 11:45 37.25441 22.85183 24024 ft 362 kts 291°
2026-05-09 11:45 37.26313 22.82218 24017 ft 363 kts 291°
2026-05-09 11:45 37.27178 22.79281 24027 ft 364 kts 291°
2026-05-09 11:45 37.28066 22.76262 24097 ft 365 kts 290°
2026-05-09 11:46 37.28935 22.73303 24488 ft 367 kts 290°
2026-05-09 11:46 37.29822 22.70283 24891 ft 370 kts 290°
2026-05-09 11:46 37.30712 22.67247 25320 ft 372 kts 290°
2026-05-09 11:46 37.31609 22.64193 25633 ft 375 kts 290°
2026-05-09 11:47 37.32513 22.61112 25974 ft 377 kts 290°
2026-05-09 11:47 37.33419 22.58016 26373 ft 378 kts 290°
2026-05-09 11:47 37.34328 22.54902 26744 ft 381 kts 290°
2026-05-09 11:47 37.35240 22.51770 27066 ft 383 kts 290°
2026-05-09 11:48 37.36158 22.48618 27399 ft 385 kts 290°
2026-05-09 11:48 37.37079 22.45446 27790 ft 387 kts 290°
2026-05-09 11:48 37.38001 22.42254 28125 ft 390 kts 290°
2026-05-09 11:48 37.38929 22.39040 28447 ft 392 kts 290°
2026-05-09 11:49 37.39864 22.35812 28785 ft 394 kts 290°
2026-05-09 11:49 37.40934 22.32635 29158 ft 395 kts 296°
2026-05-09 11:49 37.42169 22.29547 29507 ft 396 kts 296°
2026-05-09 11:49 37.43408 22.26437 29809 ft 398 kts 296°
2026-05-09 11:50 37.44642 22.23330 30228 ft 396 kts 296°
2026-05-09 11:50 37.45868 22.20233 30621 ft 394 kts 296°
2026-05-09 11:50 37.47085 22.17149 31022 ft 392 kts 296°
2026-05-09 11:50 37.48290 22.14087 31475 ft 390 kts 296°
2026-05-09 11:51 37.49491 22.11039 31869 ft 388 kts 296°
2026-05-09 11:51 37.50692 22.08000 32255 ft 387 kts 296°
2026-05-09 11:51 37.51888 22.04971 32684 ft 385 kts 296°
2026-05-09 11:51 37.53083 22.01945 33001 ft 385 kts 296°
2026-05-09 11:52 37.54274 21.98922 33353 ft 385 kts 296°
2026-05-09 11:52 37.55457 21.95912 33748 ft 383 kts 296°
2026-05-09 11:52 37.56622 21.92947 34136 ft 381 kts 296°
2026-05-09 11:52 37.57796 21.89958 34467 ft 380 kts 296°
2026-05-09 11:53 37.58968 21.86972 34779 ft 379 kts 296°
2026-05-09 11:53 37.60136 21.83988 35074 ft 379 kts 296°
2026-05-09 11:53 37.61300 21.81012 35351 ft 379 kts 295°
2026-05-09 11:53 37.62468 21.78028 35616 ft 379 kts 296°
2026-05-09 11:54 37.63635 21.75040 35856 ft 380 kts 296°
2026-05-09 11:54 37.64802 21.72046 36112 ft 380 kts 296°
2026-05-09 11:54 37.65969 21.69052 36377 ft 380 kts 296°
2026-05-09 11:54 37.67134 21.66059 36660 ft 380 kts 296°
2026-05-09 11:55 37.68299 21.63069 36895 ft 380 kts 296°
2026-05-09 11:56 37.74125 21.48059 37056 ft 381 kts 296°
2026-05-09 11:56 37.75288 21.45051 37055 ft 381 kts 296°
2026-05-09 11:57 37.77612 21.39028 37055 ft 381 kts 296°
2026-05-09 11:57 37.79922 21.33046 37057 ft 381 kts 296°
2026-05-09 11:58 37.82242 21.27014 37061 ft 381 kts 296°
2026-05-09 11:58 37.84558 21.20976 37092 ft 382 kts 296°
2026-05-09 11:59 37.86876 21.14935 37084 ft 382 kts 296°
2026-05-09 11:59 37.89194 21.08888 37077 ft 382 kts 296°
2026-05-09 12:00 37.91503 21.02837 37071 ft 382 kts 296°
2026-05-09 12:00 37.93813 20.96779 37071 ft 382 kts 296°
2026-05-09 12:01 37.96119 20.90720 37074 ft 382 kts 296°
2026-05-09 12:01 37.98418 20.84657 37069 ft 382 kts 295°
2026-05-09 12:02 38.00712 20.78589 37053 ft 382 kts 295°
2026-05-09 12:02 38.03013 20.72508 37057 ft 382 kts 295°
2026-05-09 12:03 38.05307 20.66421 37057 ft 382 kts 295°
2026-05-09 12:03 38.07594 20.60326 37059 ft 383 kts 295°
2026-05-09 12:04 38.09883 20.54227 37064 ft 383 kts 295°
2026-05-09 12:04 38.11983 20.48012 37065 ft 383 kts 290°
2026-05-09 12:05 38.13749 20.41624 37061 ft 384 kts 290°
2026-05-09 12:05 38.15513 20.35227 37063 ft 384 kts 290°
2026-05-09 12:06 38.17264 20.28863 37062 ft 384 kts 290°
2026-05-09 12:06 38.19029 20.22457 37063 ft 384 kts 290°
2026-05-09 12:07 38.20790 20.16046 37065 ft 384 kts 290°
2026-05-09 12:07 38.22548 20.09620 37062 ft 385 kts 290°
2026-05-09 12:08 38.24306 20.03191 37065 ft 385 kts 290°
2026-05-09 12:08 38.26054 19.96741 37069 ft 386 kts 290°
2026-05-09 12:09 38.27800 19.90284 37069 ft 386 kts 290°
2026-05-09 12:09 38.29556 19.83826 37072 ft 386 kts 290°
2026-05-09 12:10 38.33055 19.70883 37076 ft 387 kts 289°
2026-05-09 12:11 38.34797 19.64394 37094 ft 387 kts 289°
2026-05-09 12:11 38.36530 19.57901 37102 ft 387 kts 289°
2026-05-09 12:12 38.38257 19.51406 37104 ft 387 kts 289°
2026-05-09 12:12 38.39989 19.44913 37092 ft 387 kts 289°
2026-05-09 12:13 38.41721 19.38419 37091 ft 387 kts 289°
2026-05-09 12:13 38.43445 19.31916 37093 ft 387 kts 289°
2026-05-09 12:14 38.45165 19.25395 37096 ft 388 kts 289°
2026-05-09 12:14 38.46885 19.18877 37098 ft 388 kts 289°
2026-05-09 12:15 38.48588 19.12388 37100 ft 388 kts 289°
2026-05-09 12:15 38.50294 19.05883 37515 ft 383 kts 289°
2026-05-09 12:15 38.51131 19.02672 37917 ft 379 kts 289°
2026-05-09 12:16 38.51964 18.99453 37766 ft 384 kts 289°
2026-05-09 12:16 38.52803 18.96207 37498 ft 386 kts 289°
2026-05-09 12:16 38.53649 18.92952 37233 ft 386 kts 289°
2026-05-09 12:16 38.54498 18.89702 37055 ft 386 kts 289°
2026-05-09 12:17 38.55350 18.86451 37084 ft 387 kts 289°
2026-05-09 12:17 38.57062 18.79927 37089 ft 387 kts 289°
2026-05-09 12:18 38.58781 18.73405 37091 ft 388 kts 289°
2026-05-09 12:18 38.60512 18.66876 37093 ft 388 kts 289°
2026-05-09 12:19 38.62245 18.60342 37099 ft 388 kts 289°
2026-05-09 12:19 38.63978 18.53798 37101 ft 388 kts 289°
2026-05-09 12:20 38.65712 18.47252 37106 ft 389 kts 289°
2026-05-09 12:20 38.67435 18.40747 37108 ft 389 kts 289°
2026-05-09 12:21 38.69193 18.34198 37104 ft 389 kts 289°
2026-05-09 12:21 38.70954 18.27647 37131 ft 388 kts 289°
2026-05-09 12:21 38.71824 18.24404 37519 ft 384 kts 289°
2026-05-09 12:22 38.72686 18.21177 37810 ft 384 kts 289°
2026-05-09 12:22 38.73549 18.17924 37520 ft 386 kts 289°
2026-05-09 12:22 38.73720 18.17282 37467 ft 387 kts 289°
2026-05-09 12:23 38.74518 18.14282 37220 ft 387 kts 289°
2026-05-09 12:23 38.75391 18.11018 37066 ft 387 kts 289°
2026-05-09 12:23 38.76266 18.07754 37097 ft 388 kts 289°
2026-05-09 12:24 38.77944 18.01191 37097 ft 388 kts 281°
2026-05-09 12:24 38.78028 17.97738 37101 ft 392 kts 264°
2026-05-09 12:24 38.77196 17.94377 37101 ft 403 kts 247°
2026-05-09 12:24 38.76165 17.92365 37099 ft 413 kts 236°
2026-05-09 12:25 38.73233 17.89039 37100 ft 427 kts 225°
2026-05-09 12:25 38.69284 17.85226 37102 ft 429 kts 225°
2026-05-09 12:26 38.64504 17.80641 37081 ft 429 kts 224°
2026-05-09 12:26 38.59734 17.76052 37094 ft 429 kts 225°
2026-05-09 12:27 38.54974 17.71463 37103 ft 429 kts 225°
2026-05-09 12:27 38.50221 17.66864 37112 ft 429 kts 225°
2026-05-09 12:28 38.46317 17.61452 37114 ft 405 kts 249°
2026-05-09 12:28 38.45365 17.58126 37091 ft 396 kts 262°
2026-05-09 12:28 38.45131 17.54663 37092 ft 391 kts 273°
2026-05-09 12:29 38.45242 17.47767 37089 ft 392 kts 273°
2026-05-09 12:29 38.45334 17.40806 37099 ft 393 kts 273°
2026-05-09 12:30 38.45414 17.33840 37097 ft 393 kts 272°
2026-05-09 12:30 38.45527 17.23372 37117 ft 394 kts 272°
2026-05-09 12:31 38.45628 17.12832 35253 ft 399 kts 272°
2026-05-09 12:31 38.45662 17.09286 34202 ft 398 kts 272°
2026-05-09 12:32 38.45697 17.05749 33401 ft 399 kts 272°
2026-05-09 12:32 38.45732 17.02207 32634 ft 400 kts 271°
2026-05-09 12:32 38.45763 16.98650 31794 ft 403 kts 271°
2026-05-09 12:32 38.45792 16.95068 30989 ft 405 kts 271°
2026-05-09 12:33 38.45820 16.91471 30154 ft 408 kts 271°
2026-05-09 12:33 38.45846 16.87817 29141 ft 412 kts 271°
2026-05-09 12:33 38.45870 16.84156 28183 ft 415 kts 271°
2026-05-09 12:33 38.45896 16.80467 27251 ft 417 kts 271°
2026-05-09 12:34 38.45924 16.76746 26191 ft 422 kts 272°
2026-05-09 12:34 38.45951 16.72984 25120 ft 427 kts 272°
2026-05-09 12:34 38.45976 16.69177 24065 ft 431 kts 272°
2026-05-09 12:34 38.45999 16.65353 23070 ft 432 kts 272°
2026-05-09 12:35 38.46018 16.61552 22316 ft 425 kts 272°
2026-05-09 12:35 38.46034 16.57802 21568 ft 419 kts 272°
2026-05-09 12:35 38.46049 16.54167 20856 ft 414 kts 272°
2026-05-09 12:35 38.46062 16.50519 20143 ft 409 kts 272°
2026-05-09 12:36 38.46073 16.46912 19442 ft 404 kts 272°
2026-05-09 12:36 38.46085 16.43343 18760 ft 400 kts 271°
2026-05-09 12:36 38.46097 16.39802 18042 ft 396 kts 272°
2026-05-09 12:36 38.46110 16.36321 17384 ft 390 kts 272°
2026-05-09 12:37 38.46120 16.32893 16752 ft 384 kts 271°
2026-05-09 12:37 38.46131 16.29514 16150 ft 378 kts 272°
2026-05-09 12:37 38.46141 16.26220 15916 ft 363 kts 272°
2026-05-09 12:37 38.46151 16.23061 15795 ft 347 kts 272°
2026-05-09 12:38 38.46156 16.20048 15663 ft 333 kts 272°
2026-05-09 12:38 38.46156 16.17152 15542 ft 319 kts 272°
2026-05-09 12:38 38.46156 16.14374 15419 ft 307 kts 272°
2026-05-09 12:38 38.46145 16.11698 15300 ft 296 kts 269°
2026-05-09 12:39 38.45887 16.09133 15106 ft 290 kts 260°
2026-05-09 12:39 38.45293 16.06684 14789 ft 290 kts 251°
2026-05-09 12:39 38.44366 16.04391 14446 ft 292 kts 242°
2026-05-09 12:39 38.43133 16.02325 14095 ft 295 kts 232°
2026-05-09 12:40 38.41645 16.00561 13721 ft 297 kts 225°
2026-05-09 12:40 38.40055 15.98881 13314 ft 296 kts 225°
2026-05-09 12:40 38.38476 15.97201 12921 ft 295 kts 225°
2026-05-09 12:40 38.36905 15.95526 12537 ft 294 kts 225°
2026-05-09 12:41 38.35344 15.93862 12174 ft 292 kts 225°
2026-05-09 12:41 38.33789 15.92206 11792 ft 290 kts 225°
2026-05-09 12:41 38.32242 15.90559 11462 ft 289 kts 225°
2026-05-09 12:41 38.30705 15.88925 11184 ft 285 kts 225°
2026-05-09 12:42 38.29208 15.87337 10979 ft 277 kts 225°
2026-05-09 12:42 38.28010 15.85518 10675 ft 263 kts 252°
2026-05-09 12:42 38.27819 15.83304 10328 ft 252 kts 285°
2026-05-09 12:42 38.28647 15.81367 9892 ft 254 kts 308°
2026-05-09 12:43 38.29698 15.79548 9452 ft 256 kts 301°
2026-05-09 12:43 38.30535 15.77564 9059 ft 254 kts 294°
2026-05-09 12:43 38.31195 15.75485 8702 ft 252 kts 289°
2026-05-09 12:43 38.31709 15.73400 8535 ft 243 kts 286°
2026-05-09 12:44 38.32108 15.71332 8243 ft 238 kts 283°
2026-05-09 12:44 38.32404 15.69238 7718 ft 242 kts 279°
2026-05-09 12:44 38.32595 15.67120 7301 ft 240 kts 276°
2026-05-09 12:44 38.32679 15.65011 6879 ft 237 kts 272°
2026-05-09 12:45 38.32651 15.62934 6517 ft 233 kts 268°
2026-05-09 12:45 38.32519 15.60906 6167 ft 228 kts 264°
2026-05-09 12:45 38.32295 15.58934 5844 ft 222 kts 260°
2026-05-09 12:45 38.31686 15.57165 5535 ft 218 kts 233°
2026-05-09 12:46 38.30523 15.56008 5224 ft 210 kts 208°
2026-05-09 12:46 38.29228 15.55257 4924 ft 199 kts 208°
2026-05-09 12:46 38.27971 15.54620 4654 ft 189 kts 198°
2026-05-09 12:46 38.26688 15.54506 4366 ft 181 kts 178°
2026-05-09 12:47 38.25463 15.54660 4117 ft 174 kts 178°
2026-05-09 12:47 38.24287 15.54793 3882 ft 166 kts 177°
2026-05-09 12:47 38.23183 15.54926 3649 ft 153 kts 172°
2026-05-09 12:47 38.22190 15.55342 3456 ft 149 kts 154°
2026-05-09 12:48 38.21283 15.55941 3270 ft 144 kts 154°
2026-05-09 12:48 38.20394 15.56521 3203 ft 142 kts 154°
2026-05-09 12:48 38.19517 15.57091 3208 ft 142 kts 154°
2026-05-09 12:48 38.18636 15.57664 3205 ft 142 kts 154°
2026-05-09 12:49 38.17761 15.58233 3207 ft 141 kts 154°
2026-05-09 12:49 38.16884 15.58803 3212 ft 141 kts 154°
2026-05-09 12:49 38.16020 15.59364 3209 ft 142 kts 154°
2026-05-09 12:49 38.15135 15.59944 2979 ft 143 kts 153°
2026-05-09 12:50 38.14228 15.60519 2524 ft 145 kts 154°
2026-05-09 12:50 38.13316 15.61065 2045 ft 148 kts 154°
2026-05-09 12:50 38.12379 15.61627 1577 ft 150 kts 153°
2026-05-09 12:50 38.11469 15.62244 1184 ft 146 kts 149°
2026-05-09 12:51 38.10610 15.62894 857 ft 142 kts 151°
2026-05-09 12:51 38.09741 15.63458 637 ft 138 kts 155°
2026-05-09 12:51 38.08896 15.64017 371 ft 136 kts 155°
2026-05-09 12:51 38.08060 15.64554 134 ft 133 kts 156°
2026-05-09 12:52 38.07273 15.65065 49 ft 117 kts 155°
2026-05-09 12:52 38.06797 15.65362 34 ft 35 kts 153°
2026-05-09 12:52 38.06655 15.65462 32 ft 21 kts 148°
2026-05-09 12:52 38.06533 15.65558 33 ft 20 kts 127°
2026-05-09 12:53 38.06477 15.65648 33 ft 9 kts 149°
2026-05-09 12:53 38.06458 15.65623 34 ft 5 kts 263°
2026-05-09 12:53 38.06482 15.65565 32 ft 10 kts 318°
2026-05-09 12:53 38.06556 15.65514 33 ft 14 kts 332°
2026-05-09 12:54 38.06658 15.65453 33 ft 18 kts 335°
2026-05-09 12:54 38.06781 15.65376 34 ft 21 kts 333°
2026-05-09 12:54 38.06922 15.65285 36 ft 24 kts 333°
2026-05-09 12:54 38.07079 15.65187 41 ft 26 kts 335°
2026-05-09 12:55 38.07221 15.65093 46 ft 12 kts 333°
2026-05-09 12:55 38.07275 15.65088 47 ft 7 kts 36°
2026-05-09 12:55 38.07304 15.65140 50 ft 6 kts 60°
2026-05-09 12:55 38.07331 15.65203 50 ft 10 kts 62°
2026-05-09 12:56 38.07354 15.65263 50 ft 7 kts 77°
2026-05-09 12:56 38.07350 15.65293 50 ft 2 kts 105°
2026-05-09 12:56 38.07349 15.65298 48 ft 0 kts 105°